{"data":{"norad_id":61049,"intl_designator":"2024-163E","name":"SPACEMOBILE-004","alt_names":[],"object_type":"PAYLOAD","status":"ACTIVE","operator":null,"country":"US","launch_date":"2024-09-12","launch_site_code":"AFETR","launch_vehicle":null,"mission":null,"orbit_class":"UNKNOWN","rcs_meters":null,"size_class":null,"mass_kg":null,"dimensions":null,"purposes":[],"wikipedia_slug":null,"has_3d_model":false,"image_url":null,"decayed_at":null,"tle_current":{"epoch":"2026-05-24T01:09:31.066272Z","epoch_age_seconds":160566,"freshness":"FRESH","line1":"1 61049U 24163E   26144.04827623  .00017209  00000+0  78223-3 0  9998","line2":"2 61049  52.9764  59.9333 0010470  70.4921 289.7203 15.20818789 94094","mean_motion":15.20818789,"eccentricity":0.001047,"inclination_deg":52.9764,"raan_deg":59.9333,"arg_perigee_deg":70.4921,"mean_anomaly_deg":289.7203,"bstar":0.00078223,"rev_number":9409,"period_min":94.685837025124,"perigee_km":496.16462543418,"apogee_km":510.57450017669,"semimajor_km":6881.5065628054,"source":"CELESTRAK","updated_at":"2026-05-25T13:38:02.301228Z"}}}